Weather History for Smithfield, NC

Change the Weather History Date:

Thursday, October 31, 2013

  Actual Average Record
Temperature  
Mean Temperature 62 °F -  
Max Temperature 77 °F 68 °F 88 °F (1961)
Min Temperature 48 °F 42 °F 27 °F (1963)
Degree Days  
Heating Degree Days 2    
Growing Degree Days 12 (Base 50)    
Moisture  
Dew Point 55 °F    
Average Humidity 82    
Maximum Humidity 100    
Minimum Humidity 47    
Precipitation  
Precipitation 0.00 in - - ()
Sea Level Pressure  
Sea Level Pressure 30.11 in    
Wind  
Wind Speed 2 mph (South)    
Max Wind Speed 12 mph    
Max Gust Speed 20 mph    
Visibility 8 miles    
Events      
Averages and records for this station are not official NWS values.
T = Trace of Precipitation, MM = Missing Value Source: NWS Daily Summary

Daily Weather History Graph

Daily Weather History Graph

Search for Another Location

Airport:

Trip Planner

Search our weather history database for the weather conditions in past years. The results will help you decide how hot, cold, wet, or windy it might be!

Date:

Astronomy

Oct. 31, 2013 Rise Set
Actual Time 7:34 AM EDT 6:19 PM EDT
Civil Twilight 7:08 AM EDT 6:45 PM EDT
Nautical Twilight 6:38 AM EDT 7:15 PM EDT
Astronomical Twilight 6:08 AM EDT 7:45 PM EDT
Moon 4:28 AM EDT (10/31) 4:31 PM EDT (10/31)
Length of Visible Light 11h 37m
Length of Day
10h 44m
Waning Crescent, 10% of the Moon is Illuminated
Oct 31
Waning Crescent
Nov 3
New
Nov 10
First Quarter
Nov 17
Full
Nov 25
Last Quarter

Hourly Weather History & Observations

Time (EDT) Temp. Dew Point Humidity Pressure Visibility Wind Dir Wind Speed Gust Speed Precip Events Conditions
12:15 AM 53.6 °F 53.6 °F 100% 30.21 in 7.0 mi Calm Calm - N/A   Clear
12:35 AM 51.8 °F 51.8 °F 100% 30.20 in 4.0 mi Calm Calm - N/A   Clear
12:55 AM 51.8 °F 51.8 °F 100% 30.21 in 7.0 mi Calm Calm - N/A   Clear
1:15 AM 51.8 °F 51.8 °F 100% 30.20 in 7.0 mi Calm Calm - N/A   Clear
1:35 AM 51.8 °F 51.8 °F 100% 30.20 in 7.0 mi Calm Calm - N/A   Clear
1:55 AM 51.8 °F 51.8 °F 100% 30.19 in 7.0 mi Calm Calm - N/A   Clear
2:15 AM 51.8 °F 51.8 °F 100% 30.20 in 5.0 mi Calm Calm - N/A   Clear
2:35 AM 51.8 °F 51.8 °F 100% 30.19 in 5.0 mi Calm Calm - N/A   Clear
2:55 AM 51.8 °F 51.8 °F 100% 30.18 in 5.0 mi Calm Calm - N/A   Clear
3:15 AM 51.8 °F 51.8 °F 100% 30.19 in 4.0 mi Calm Calm - N/A   Clear
3:35 AM 50.0 °F 50.0 °F 100% 30.19 in 5.0 mi Calm Calm - N/A   Clear
3:55 AM 51.8 °F 51.8 °F 100% 30.20 in 4.0 mi Calm Calm - N/A   Clear
4:15 AM 50.0 °F 50.0 °F 100% 30.20 in 7.0 mi Calm Calm - N/A   Scattered Clouds
4:35 AM 50.0 °F 50.0 °F 100% 30.20 in 7.0 mi Calm Calm - N/A   Scattered Clouds
4:55 AM 50.0 °F 50.0 °F 100% 30.19 in 5.0 mi Calm Calm - N/A   Clear
5:15 AM 50.0 °F 50.0 °F 100% 30.19 in 5.0 mi Calm Calm - N/A   Clear
5:35 AM 50.0 °F 50.0 °F 100% 30.19 in 5.0 mi Calm Calm - N/A   Clear
5:55 AM 50.0 °F 50.0 °F 100% 30.19 in 5.0 mi Calm Calm - N/A   Clear
6:15 AM 50.0 °F 50.0 °F 100% 30.18 in 7.0 mi Calm Calm - N/A   Clear
6:35 AM 48.2 °F 48.2 °F 100% 30.18 in 5.0 mi Calm Calm - N/A   Clear
6:55 AM 48.2 °F 48.2 °F 100% 30.18 in 7.0 mi Calm Calm - N/A   Clear
7:15 AM 50.0 °F 50.0 °F 100% 30.19 in 10.0 mi Calm Calm - N/A   Clear
7:35 AM 50.0 °F 50.0 °F 100% 30.20 in 7.0 mi Calm Calm - N/A   Clear
7:55 AM 50.0 °F 50.0 °F 100% 30.19 in 7.0 mi Calm Calm - N/A   Clear
8:15 AM 50.0 °F 50.0 °F 100% 30.19 in 7.0 mi Calm Calm - N/A   Clear
8:35 AM 51.8 °F 51.8 °F 100% 30.19 in 7.0 mi Calm Calm - N/A   Clear
8:55 AM 53.6 °F 53.6 °F 100% 30.18 in 10.0 mi Calm Calm - N/A   Clear
9:15 AM 57.2 °F 55.4 °F 94% 30.19 in 7.0 mi Calm Calm - N/A   Scattered Clouds
9:35 AM 59.0 °F 59.0 °F 100% 30.19 in 7.0 mi Calm Calm - N/A   Scattered Clouds
9:55 AM 60.8 °F 59.0 °F 94% 30.18 in 10.0 mi Calm Calm - N/A   Clear
10:15 AM 62.6 °F 59.0 °F 88% 30.18 in - Calm Calm - N/A   Unknown
10:35 AM 64.4 °F 59.0 °F 83% 30.18 in 10.0 mi South 3.5 mph - N/A   Clear
10:55 AM 68.0 °F 57.2 °F 68% 30.18 in 10.0 mi SW 5.8 mph - N/A   Clear
11:15 AM 69.8 °F 57.2 °F 64% 30.17 in 10.0 mi South 8.1 mph - N/A   Scattered Clouds
11:35 AM 69.8 °F 57.2 °F 64% 30.16 in 10.0 mi South 5.8 mph - N/A   Overcast
11:55 AM 69.8 °F 57.2 °F 64% 30.15 in 10.0 mi SSW 3.5 mph - N/A   Overcast
12:15 PM 71.6 °F 55.4 °F 57% 30.14 in 10.0 mi SSW 6.9 mph - N/A   Mostly Cloudy
12:35 PM 71.6 °F 55.4 °F 57% 30.13 in 10.0 mi South 6.9 mph - N/A   Overcast
12:55 PM 71.6 °F 55.4 °F 57% 30.11 in 10.0 mi South 9.2 mph - N/A   Overcast
1:15 PM 73.4 °F 55.4 °F 53% 30.10 in 10.0 mi South 8.1 mph - N/A   Scattered Clouds
1:35 PM 73.4 °F 55.4 °F 53% 30.08 in 10.0 mi South 9.2 mph - N/A   Clear
1:55 PM 75.2 °F 55.4 °F 50% 30.07 in 10.0 mi South 11.5 mph - N/A   Clear
2:15 PM 77.0 °F 55.4 °F 47% 30.06 in 10.0 mi SSW 11.5 mph 18.4 mph N/A   Clear
2:35 PM 75.2 °F 55.4 °F 50% 30.06 in 10.0 mi SSW 10.4 mph 19.6 mph N/A   Scattered Clouds
2:55 PM 73.4 °F 55.4 °F 53% 30.05 in 10.0 mi SSW 10.4 mph 18.4 mph N/A   Scattered Clouds
3:15 PM 73.4 °F 55.4 °F 53% 30.04 in 10.0 mi SSW 9.2 mph - N/A   Clear
3:35 PM 73.4 °F 55.4 °F 53% 30.05 in 10.0 mi SW 4.6 mph - N/A   Clear
3:55 PM 73.4 °F 55.4 °F 53% 30.05 in 10.0 mi SSW 6.9 mph - N/A   Clear
4:15 PM 71.6 °F 53.6 °F 53% 30.05 in 10.0 mi SSW 5.8 mph - N/A   Clear
4:35 PM 71.6 °F 53.6 °F 53% 30.03 in 10.0 mi South 4.6 mph - N/A   Clear
4:55 PM 71.6 °F 53.6 °F 53% 30.03 in 10.0 mi South 4.6 mph - N/A   Clear
5:15 PM 69.8 °F 55.4 °F 60% 30.02 in 10.0 mi South 4.6 mph - N/A   Clear
5:35 PM 68.0 °F 55.4 °F 64% 30.02 in 10.0 mi Calm Calm - N/A   Clear
5:55 PM 68.0 °F 57.2 °F 68% 30.01 in 10.0 mi Calm Calm - N/A   Clear
6:15 PM 68.0 °F 57.2 °F 68% 30.01 in 10.0 mi South 3.5 mph - N/A   Clear
6:35 PM 64.4 °F 57.2 °F 77% 30.00 in 10.0 mi Calm Calm - N/A   Clear
6:55 PM 66.2 °F 57.2 °F 73% 30.00 in 10.0 mi Calm Calm - N/A   Clear
7:15 PM 64.4 °F 59.0 °F 83% 30.00 in 10.0 mi South 3.5 mph - N/A   Scattered Clouds
7:35 PM 64.4 °F 57.2 °F 77% 30.00 in 10.0 mi South 4.6 mph - N/A   Scattered Clouds
7:55 PM 66.2 °F 59.0 °F 78% 30.00 in 10.0 mi South 3.5 mph - N/A   Scattered Clouds
8:15 PM 64.4 °F 59.0 °F 83% 30.00 in 10.0 mi South 4.6 mph - N/A   Overcast
8:35 PM 66.2 °F 59.0 °F 78% 29.99 in 10.0 mi South 3.5 mph - N/A   Scattered Clouds
8:55 PM 66.2 °F 59.0 °F 78% 29.99 in 10.0 mi South 5.8 mph - N/A   Clear
9:15 PM 66.2 °F 60.8 °F 83% 29.99 in 10.0 mi South 5.8 mph - N/A   Clear
9:35 PM 64.4 °F 60.8 °F 88% 29.99 in 10.0 mi South 4.6 mph - N/A   Clear
9:55 PM 64.4 °F 60.8 °F 88% 29.99 in 10.0 mi South 4.6 mph - N/A   Clear
10:15 PM 64.4 °F 60.8 °F 88% 29.99 in 10.0 mi South 5.8 mph - N/A   Scattered Clouds
10:35 PM 66.2 °F 62.6 °F 88% 29.98 in 10.0 mi South 6.9 mph - N/A   Clear
10:55 PM 66.2 °F 62.6 °F 88% 29.98 in 10.0 mi South 8.1 mph - N/A   Clear
11:15 PM 68.0 °F 62.6 °F 83% 29.98 in 10.0 mi South 6.9 mph - N/A   Scattered Clouds
11:35 PM 68.0 °F 62.6 °F 83% 29.97 in 10.0 mi South 6.9 mph - N/A   Mostly Cloudy
11:55 PM 68.0 °F 62.6 °F 83% 29.96 in 10.0 mi South 5.8 mph - N/A   Mostly Cloudy